Regional Weather Roundup
Issued by NWS

Home | Current Version | Previous Version | Text Only | Print | Product List | Glossary On
Versions: 1 2 3 4 5 6 7 8 9 10 11 12 13 14 15 16 17 18 19 20 21 22 23 24 25 26 27 28 29 30 31 32 33 34 35 36 37 38 39 40 41 42 43 44 45 46 47 48 49 50
000
ASUS43 KDTX 192310
RWRMI
MICHIGAN HOURLY REGIONAL WEATHER ROUNDUP
NATIONAL WEATHER SERVICE DETROIT/PONTIAC MI
700 PM EDT SAT APR 19 2014

NOTE: "FAIR" INDICATES FEW OR NO CLOUDS BELOW 12,000 FEET WITH NO
SIGNIFICANT WEATHER AND/OR OBSTRUCTION TO VISIBILITY.

MIZ047>049-052>055-059>063-066>070-074>076-081>083-200000-
SOUTHEAST LOWER MICHIGAN

CITY           SKY/WX    TMP DP  RH WIND       PRES   REMARKS
ADRIAN         SUNNY     51  28  41 SE13      30.35R
ALMA           MOSUNNY   56  27  32 SE10      30.33F
ANN ARBOR      SUNNY     52  30  43 E12       30.34F
BAD AXE        SUNNY     46  31  56 SE6       30.38F
CARO           SUNNY     53  25  33 E9        30.35F
DETROIT CITY   SUNNY     54  28  36 E10       30.35F
DETROIT        MOSUNNY   50  29  44 SE7       30.36F
FLINT          SUNNY     57  27  31 E9        30.33F
GROSSE ILE     SUNNY     46  34  61 S8        30.35F
HILLSDALE      SUNNY     55  28  35 E9        30.32S
HOWELL         SUNNY     55  26  32 SE9       30.32S

CITY           SKY/WX    TMP DP  RH WIND       PRES   REMARKS
JACKSON        SUNNY     55  26  32 SE10      30.32R
LAMBERTVILLE   SUNNY     48  28  46 E10       30.35F
LANSING        SUNNY     58  22  24 S8        30.32S
LAPEER         FAIR      53  24  32 E6        30.35F
MASON          SUNNY     58  25  28 SE8       30.31S
MONROE         SUNNY     48  30  49 SE8       30.35S
MT. CLEMENS    MOSUNNY   51  31  46 SE10      30.35S
PONTIAC        MOSUNNY   54  21  27 E9        30.33F
PORT HOPE        N/A     38  31  76 E7        30.39F WCI  33
PORT HURON     SUNNY     43  34  70 NE10      30.39S
TRI CITIES     SUNNY     47  35  63 NE14      30.36F
TROY           SUNNY     55  28  36 E10       30.35F
SAGINAW HB     SUNNY     54  28  37 E9        30.34F
YPSILANTI      SUNNY     55  30  38 SE12      30.35F
$$
MIZ043>046-050>051-056>058-064>065-071>073-077>080-200000-
SOUTHWEST LOWER MICHIGAN

CITY           SKY/WX    TMP DP  RH WIND       PRES   REMARKS
BATTLE CREEK   MOSUNNY   60  27  28 SE9       30.30S
BENTON HARBOR  MOSUNNY   62  35  36 SE9       30.26F
BIG RAPIDS     MOSUNNY   55  28  34 S13       30.29F
COLDWATER      SUNNY     55  28  34 SE9       30.31S
FREMONT        FAIR      58  24  26 SE6       30.28F
HOLLAND        MOSUNNY   63  29  27 SE7G17    30.27F
GRAND RAPIDS   PTSUNNY   61  27  27 E10G21    30.29F
IONIA          FAIR      58  25  28 SE9       30.29F
KALAMAZOO      MOSUNNY   61  28  28 SE7       30.29S
LUDINGTON      MOSUNNY   49  33  54 W3        30.28F
MARSHALL       SUNNY     58  28  32 SE6       30.30R
MOUNT PLEASANT MOSUNNY   53  34  49 E12       30.33F
MUSKEGON       PTSUNNY   62  26  25 SE9       30.28S
SOUTH HAVEN    MOSUNNY   63  29  27 SE6       30.27S
$$
MIZ016>042-200000-
NORTHERN LOWER MICHIGAN

CITY           SKY/WX    TMP DP  RH WIND       PRES   REMARKS
ALPENA         MOSUNNY   40  26  57 SE9       30.38F WCI  34
BEAVER ISLAND  PTSUNNY   43  29  59 E9        30.28F
BELLAIRE       PTSUNNY   57  25  28 S13       30.28R
CADILLAC       MOSUNNY   52  30  43 SE10G18   30.29S
CHARLEVOIX     PTSUNNY   51  27  39 N3        30.30S
FRANKFORT      MOSUNNY   47  26  44 W5        30.28S
GAYLORD        MOSUNNY   51  22  31 SE15      30.29S
GRAYLING       MOSUNNY   51  22  33 SE15      30.32S
HARBOR SPRINGS MOSUNNY   56  30  37 E9        30.27S
HOUGHTON LAKE  MOSUNNY   50  28  42 S10       30.33F
MANISTEE       MOSUNNY   46  27  46 W7        30.29F
OSCODA         MOSUNNY   41  28  58 E5        30.39F
PELLSTON       MOSUNNY   52  28  39 E13       30.30F
ROGERS CITY    MOSUNNY   43  30  59 SE8       30.37F
TRAVERSE CITY  CLOUDY    58  26  29 S10G18    30.26F
$$
MIZ007>008-015-200000-
EASTERN UPPER MICHIGAN

CITY           SKY/WX    TMP DP  RH WIND       PRES   REMARKS
KINROSS        PTSUNNY   39  23  52 SE18G24   30.33F WCI  30
MACKINAC ISLAN MOSUNNY   35  30  80 E12G26    30.33S WCI  27
NEWBERRY       PTSUNNY   41  26  55 SE14      30.26F
S. S. MARIE    CLOUDY    41  24  51 SE13      30.34F
MUNISING         N/A     47  24  40 S17G25    30.20F
$$
MIZ004>006-011>014-085-200000-
CENTRAL UPPER MICHIGAN

CITY           SKY/WX    TMP DP  RH WIND       PRES   REMARKS
MANISTIQUE     PTSUNNY   40  30  67 SE10G20   30.26F WCI  33
ESCANABA       MOSUNNY   39  28  65 SE13      30.24F WCI  32
MENOMINEE      MOSUNNY   48  32  53 S12       30.22F
SAWYER-GWINN   SUNNY     45  23  42 S22G28    30.18F
$$
MIZ001>003-009>011-084-200000-
WESTERN UPPER MICHIGAN

CITY           SKY/WX    TMP DP  RH WIND       PRES   REMARKS
IRON MOUNTAIN  MOSUNNY   48  26  42 SE16G24   30.13F
HOUGHTON       LGT RAIN  36  32  85 E3        30.09R FOG
COPPER HARBOR    N/A     38  30  73 S13G25    30.11R WCI  30
IRONWOOD       CLOUDY    46  37  71 S8        30.01F
$$

ABBREVIATIONS USED IN REMARKS
   TC - TEMPERATURE IN CELSIUS
  WCI - WIND CHILL INDEX
   HX - HEAT INDEX
  VSB - VISIBILITY




USA.gov is the U.S. government's official web portal to all federal, state and local government web resources and services.